This demonstration page uses our WeatherBlox Daily Observations layout. Learn more.

Left ArrowRight Arrow

40.92945, -100.16068

Hourly Observations for February 18, 2020

Temp ( °F °C ) Dew Point ( °F °C ) Humidity (%) Winds ( mph kmh ) Pressure ( in mb ) Visibility ( mi km ) Precip ( " mm )
12:15 am 00:15 Clear 27 -3 24 -4.5 90 90 N 7 11 30.33 1027 10 16 N/A
12:35 am 00:35 Clear 26 -3.2 23 -4.8 89 89 N 6 9 30.33 1027 10 16 N/A
12:55 am 00:55 Clear 26 -3.6 23 -5 90 90 WNW 3 6 30.35 1028 10 16 N/A
1:15 am 01:15 Clear 26 -3.5 23 -4.9 90 90 N N/A 30.36 1028 10 16 N/A
1:35 am 01:35 Clear 26 -3.5 24 -4.7 92 92 NW 5 7 30.36 1028 10 16 N/A
1:55 am 01:55 Clear 25 -4 23 -5.2 91 91 NW 6 9 30.37 1028 10 16 N/A
2:15 am 02:15 Clear 24 -4.2 23 -5.2 93 93 NW 5 7 30.36 1028 10 16 N/A
2:35 am 02:35 Clear 23 -5 22 -5.8 94 94 WNW 6 9 30.38 1029 10 16 N/A
2:55 am 02:55 Clear 23 -5.1 22 -5.8 95 95 WNW 6 9 30.39 1029 10 16 N/A
3:15 am 03:15 Clear 22 -5.4 21 -6.2 94 94 N N/A 30.38 1029 10 16 N/A
3:35 am 03:35 Clear 22 -5.5 21 -6.2 95 95 WNW 5 7 30.39 1029 10 16 N/A
3:55 am 03:55 Clear 23 -5.1 22 -5.8 95 95 WNW 7 11 30.39 1029 10 16 N/A
4:15 am 04:15 Clear 23 -5.1 21 -6.1 93 93 NW 7 11 30.39 1029 10 16 N/A
4:35 am 04:35 Clear 21 -6.1 20 -6.8 95 95 WNW 5 7 30.40 1029 10 16 N/A
4:55 am 04:55 Clear 21 -6.3 19 -7.1 94 94 NW 3 6 30.41 1030 10 16 N/A
5:15 am 05:15 Clear 21 -6.2 19 -7 94 94 N N/A 30.42 1030 10 16 N/A
5:35 am 05:35 Clear 21 -6 20 -6.6 96 96 NW 3 6 30.43 1030 10 16 N/A
5:55 am 05:55 Clear 22 -5.7 20 -6.6 93 93 NW 5 7 30.44 1031 10 16 N/A
6:15 am 06:15 Partly Cloudy 21 -6.2 19 -7 94 94 NW 6 9 30.45 1031 10 16 N/A
6:35 am 06:35 Cloudy 22 -5.7 20 -6.6 93 93 NW 5 7 30.45 1031 10 16 N/A
6:55 am 06:55 Cloudy 23 -5.1 21 -6.1 93 93 N N/A 30.44 1031 10 16 N/A
7:15 am 07:15 Cloudy 24 -4.3 22 -5.4 92 92 W 3 6 30.44 1031 10 16 N/A
7:35 am 07:35 Cloudy 24 -4.3 22 -5.4 92 92 WNW 6 9 30.44 1031 10 16 N/A
7:55 am 07:55 Cloudy 25 -4.1 22 -5.3 91 91 WNW 6 9 30.45 1031 10 16 N/A
8:15 am 08:15 Cloudy 25 -3.9 23 -5.1 91 91 W 6 9 30.46 1031 10 16 N/A
8:35 am 08:35 Cloudy 26 -3.5 23 -5 89 89 W 5 7 30.46 1032 10 16 N/A
8:55 am 08:55 Cloudy 26 -3.1 24 -4.7 89 89 W 6 9 30.47 1032 10 16 N/A
9:15 am 09:15 Cloudy 27 -2.6 24 -4.3 88 88 W 5 7 30.46 1032 10 16 N/A
9:35 am 09:35 Cloudy 29 -1.9 25 -4 86 86 W 6 9 30.47 1032 10 16 N/A
9:55 am 09:55 Cloudy 30 -1.1 25 -3.7 83 83 WNW 5 7 30.46 1031 10 16 N/A
10:15 am 10:15 Partly Cloudy 32 undefined 25 -3.7 76 76 WNW 8 13 30.45 1031 10 16 N/A
10:35 am 10:35 Sunny 32 0.1 24 -4.5 72 72 WNW 7 11 30.46 1031 10 16 N/A
10:55 am 10:55 Sunny 33 0.6 23 -4.8 67 67 WNW 7 11 30.44 1031 10 16 N/A
11:15 am 11:15 Sunny 34 1.2 22 -5.3 62 62 WSW 5 7 30.44 1031 10 16 N/A
11:35 am 11:35 Sunny 35 1.7 23 -5.2 61 61 W 6 9 30.43 1031 10 16 N/A
11:55 am 11:55 Sunny 36 2.4 23 -5 59 59 W 5 7 30.42 1030 10 16 N/A
12:15 pm 12:15 Sunny 37 2.7 22 -5.6 55 55 W 7 11 30.41 1030 10 16 N/A
12:35 pm 12:35 Sunny 38 3.3 21 -6.1 51 51 W 7 11 30.41 1030 10 16 N/A
12:55 pm 12:55 Sunny 39 3.7 22 -5.8 50 50 SW 5 7 30.39 1029 10 16 N/A
1:15 pm 13:15 Sunny 40 4.3 21 -6.2 47 47 N N/A 30.38 1029 10 16 N/A
1:35 pm 13:35 Sunny 40 4.5 21 -6 47 47 W 8 13 30.36 1028 10 16 N/A
1:55 pm 13:55 Sunny 41 4.8 21 -6.3 45 45 WSW 5 7 30.36 1028 10 16 N/A
2:15 pm 14:15 Partly Cloudy 42 5.3 21 -5.9 45 45 W 12 19 30.35 1028 10 16 N/A
2:35 pm 14:35 Partly Cloudy 41 5.1 21 -6.1 45 45 W 9 15 30.35 1028 10 16 N/A
2:55 pm 14:55 Mostly Cloudy 41 5.2 21 -6.1 44 44 SW 7 11 30.35 1028 10 16 N/A
3:15 pm 15:15 Cloudy 42 5.3 21 -6.2 44 44 W 3 6 30.34 1027 10 16 N/A
3:35 pm 15:35 Cloudy 41 5 22 -5.4 47 47 NW 9 15 30.33 1027 10 16 N/A
3:55 pm 15:55 Mostly Cloudy 41 4.8 22 -5.8 47 47 NW 3 6 30.33 1027 10 16 N/A
4:15 pm 16:15 Mostly Cloudy 41 5 22 -5.7 46 46 NW 3 6 30.33 1027 10 16 N/A
4:35 pm 16:35 Mostly Cloudy 41 5.1 21 -5.9 45 45 N N/A 30.33 1027 10 16 N/A
4:55 pm 16:55 Partly Cloudy 42 5.8 21 -6.1 42 42 NW 5 7 30.32 1027 10 16 N/A
5:15 pm 17:15 Sunny 42 5.6 21 -6.3 42 42 WNW 5 7 30.32 1027 10 16 N/A
5:35 pm 17:35 Sunny 42 5.5 20 -6.5 42 42 SW 6 9 30.32 1027 10 16 N/A
5:55 pm 17:55 Sunny 40 4.7 20 -6.8 43 43 S 3 6 30.33 1027 10 16 N/A
6:15 pm 18:15 Sunny 37 2.9 19 -7.3 47 47 S 3 6 30.35 1028 7 11 N/A
6:35 pm 18:35 Clear 37 2.6 19 -7.4 48 48 SSE 5 7 30.36 1028 10 16 N/A
6:55 pm 18:55 Clear 35 1.4 19 -7 54 54 ESE 5 7 30.37 1029 10 16 N/A
7:15 pm 19:15 Clear 35 1.4 22 -5.8 59 59 SE 6 9 30.38 1029 10 16 N/A
7:35 pm 19:35 Clear 33 0.3 21 -6.1 63 63 SE 5 7 30.39 1029 10 16 N/A
7:55 pm 19:55 Clear 34 1.2 21 -6.1 59 59 SE 5 7 30.40 1029 10 16 N/A
8:15 pm 20:15 Partly Cloudy 33 0.7 21 -6.1 61 61 SE 5 7 30.40 1029 10 16 N/A
8:35 pm 20:35 Partly Cloudy 32 -0.1 20 -6.4 63 63 SSE 6 9 30.42 1030 10 16 N/A
8:55 pm 20:55 Clear 31 -0.7 20 -6.8 64 64 SSE 5 7 30.43 1030 10 16 N/A
9:15 pm 21:15 Clear 28 -2 20 -6.9 69 69 SSE 5 7 30.45 1031 10 16 N/A
9:35 pm 21:35 Clear 29 -1.8 19 -7.1 67 67 S 5 7 30.45 1031 10 16 N/A
9:55 pm 21:55 Clear 30 -1 22 -5.7 71 71 NNE 13 20 30.45 1031 10 16 N/A
10:15 pm 22:15 Clear 26 -3.6 24 -4.7 92 92 NE 12 19 30.49 1033 10 16 N/A
10:35 pm 22:35 Clear 24 -4.3 23 -5 95 95 NE 13 20 30.50 1033 7 11 N/A
10:55 pm 22:55 Mostly Cloudy 24 -4.4 23 -5 96 96 NE 14 22 30.51 1033 7 11 N/A
11:15 pm 23:15 Cloudy 24 -4.3 23 -5 95 95 NE 13 20 30.51 1033 7 11 N/A
11:35 pm 23:35 Cloudy 24 -4.7 22 -5.3 96 96 NE 12 19 30.53 1034 7 11 N/A
11:55 pm 23:55 Cloudy 23 -5.1 22 -5.8 95 95 ENE 8 13 30.54 1034 7 11 N/A

Powered by AerisWeather